Simultaneous Nadir Overpasses (SNOs) Predictions

Prediction of SNOs between AQUA and METOP-C Satellite Orbit:

Table of predicted SNOs for the next 14.0 days since TLE Epoch: 6/1/2024
Index Date (AQUA) Time (AQUA) Lat,Lon (AQUA) SZA (AQUA ) Date (METOP-C) Time (METOP-C) Lat,Lon (METOP-C) SZA (METOP-C ) Distance(km) Time Diff (sec)
1 06/01/2024 15:23:22 -75.36, 127.62 126.90 06/01/2024 15:22:14 -75.34, 127.64 126.92 2.05 68
2 06/01/2024 16:12:46 75.40, -64.84 53.14 06/01/2024 16:12:53 75.41, -64.83 53.15 0.62 7
3 06/01/2024 17:02:17 -75.90, 101.35 126.36 06/01/2024 17:03:23 -75.93, 104.17 126.34 76.57 66
4 06/04/2024 06:44:30 74.99, 78.37 52.41 06/04/2024 06:43:22 74.93, 76.20 52.37 62.85 68
5 06/04/2024 07:33:59 -75.39,-115.08 127.19 06/04/2024 07:33:54 -75.38,-115.15 127.20 2.42 5
6 06/04/2024 08:23:23 75.44, 52.44 52.86 06/04/2024 08:24:33 75.44, 52.35 52.86 2.52 70
7 06/06/2024 22:55:13 75.39,-165.31 52.53 06/06/2024 22:54:53 75.39,-165.38 52.54 1.81 20
8 06/06/2024 23:44:35 -75.43, 2.21 127.43 06/06/2024 23:45:33 -75.46, 2.18 127.40 3.29 58
9 06/09/2024 14:16:24 -75.38, 144.46 127.71 06/09/2024 14:15:53 -75.41, 144.44 127.67 3.38 31
10 06/09/2024 15:05:48 75.44, -48.05 52.35 06/09/2024 15:06:32 75.45, -48.10 52.37 2.08 44
11 06/12/2024 05:37:35 75.39, 94.18 52.13 06/12/2024 05:36:51 75.38, 94.12 52.12 1.92 44
12 06/12/2024 06:26:58 -75.48, -98.41 127.79 06/12/2024 06:27:31 -75.47, -98.28 127.80 3.79 33
13 06/14/2024 20:58:44 -75.38, 43.96 128.02 06/14/2024 20:57:51 -75.40, 43.93 127.99 2.10 53
14 06/14/2024 21:48:08 75.45,-148.58 52.06 06/14/2024 21:48:29 75.47,-148.51 52.08 3.24 21



Historial Predications of SNOs between AQUA and METOP-C
